SCP
0 0 0 0 0 0 0 0 0 0 0 0 0 0 0 0 0 0 0 0 0 0 0 0 0 0 0 0 0 0 0 0 0 0 0 0 0 0 0 0 0 0 0
0 0 0 0 0 0 0 0 0 0 0 0 0 0 0 0 0 0 0 0 0 0 0 0 0 0 0 0 0 0 0 0 0 0 0 0 0 0 0 0 0 0 0
0 0 0 0 0 0 0 0 0 0 0 0 0 0 0 0 0 0 0 0 0 0 0 0 0 0 0 0 0 0 0 0 0 0 0 0 0 0 0 0 0 0 0
0 0 0 0 0 0 0 0 0 0 0 0 0 0 0 0 0 0 0 0 0 0 0 0 0 0 0 0 0 0 0 0 0 0 0 0 0 0 0 0 0 0 0
0 0 0 0 0 0 0 0 0 0 0 0 0 0 0 0 0 0 0 0 0 0 0 0 0 0 0 0 0 0 0 0 0 0 0 0 0 0 0 0 0 0 0
0 0 0 0 0 0 0 0 0 0 0 0 0 0 0 0 0 0 0 0 0 0 0 0 0 0 0 0 0 0 0 0 0 0 0 0 0 0 0 0 0 0 0
0 0 0 0 0 0 0 0 0 0 0 0 0 0 0 0 0 0 0 0 0 0 0 0 0 0 0 0 0 0 0 0 0 0 0 0 0 0 0 0 0 0 0
0 0 0 0 0 0 0 0 0 0 0 0 0 0 0 0 0 0 0 0 0 0 0 0 0 0 0 0 0 0 0 0 0 0 0 0 0 0 0 0 0 0 0
0 0 0 0 0 0 0 0 0 0 0 0 0 0 0 0 0 0 0 0 0 0 0 0 0 0 0 0 0 0 0 0 0 0 0 0 0 0 0 0 0 0 0
0 0 0 0 0 0 0 0 0 0 0 0 0 0 0 0 0 0 0 0 0 0 0 0 0 0 0 0 0 0 0 0 0 0 0 0 0 0 0 0 0 0 0
0 0 0 0 0 0 0 0 0 0 0 0 0 0 0 0 0 0 0 0 0 0 0 0 0 0 0 0 0 0 0 0 0 0 0 0 0 0 0 0 0 0 0
0 0 0 0 0 0 0 0 0 0 0 0 0 0 0 0 0 0 0 0 0 0 0 0 0 0 0 0 0 0 0 0 0 0 0 0 0 0 0 0 0 0 0
0 0 0 0 0 0 0 0 0 0 0 0 0 0 0 0 0 0 0 0 0 0 0 0 0 0 0 0 0 0 0 0 0 0 0 0 0 0 0 0 0 0 0
0 0 0 0 0 0 0 0 0 0 0 0 0 0 0 0 0 0 0 0 0 0 0 0 0 0 0 0 0 0 0 0 0 0 0 0 0 0 0 0 0 0 0
0 0 0 0 0 0 0 0 0 0 0 0 0 0 0 0 0 0 0 0 0 0 0 0 0 0 0 0 0 0 0 0 0 0 0 0 0 0 0 0 0 0 0
0 0 0 0 0 0 0 0 0 0 0 0 0 0 0 0 0 0 0 0 0 0 0 0 0 0 0 0 0 0 0 0 0 0 0 0 0 0 0 0 0 0 0
0 0 0 0 0 0 0 0 0 0 0 0 0 0 0 0 0 0 0 0 0 0 0 0 0 0 0 0 0 0 0 0 0 0 0 0 0 0 0 0 0 0 0
0 0 0 0 0 0 0 0 0 0 0 0 0 0 0 0 0 0 0 0 0 0 0 0 0 0 0 0 0 0 0 0 0 0 0 0 0 0 0 0 0 0 0
0 0 0 0 0 0 0 0 0 0 0 0 0 0 0 0 0 0 0 0 0 0 0 0 0 0 0 0 0 0 0 0 0 0 0 0 0 0 0 0 0 0 0
0 0 0 0 0 0 0 0 0 0 0 0 0 0 0 0 0 0 0 0 0 0 0 0 0 0 0 0 0 0 0 0 0 0 0 0 0 0 0 0 0 0 0
0 0 0 0 0 0 0 0 0 0 0 0 0 0 0 0 0 0 0 0 0 0 0 0 0 0 0 0 0 0 0 0 0 0 0 0 0 0 0 0 0 0 0
0 0 0 0 0 0 0 0 0 0 0 0 0 0 0 0 0 0 0 0 0 0 0 0 0 0 0 0 0 0 0 0 0 0 0 0 0 0 0 0 0 0 0
0 0 0 0 0 0 0 0 0 0 0 0 0 0 0 0 0 0 0 0 0 0 0 0 0 0 0 0 0 0 0 0 0 0 0 0 0 0 0 0 0 0 0
0 0 0 0 0 0 0 0 0 0 0 0 0 0 0 0 0 0 0 0 0 0 0 0 0 0 0 0 0 0 0 0 0 0 0 0 0 0 0 0 0 0 0
0 0 0 0 0 0 0 0 0 0 0 0 0 0 0 0 0 0 0 0 0 0 0 0 0 0 0 0 0 0 0 0 0 0 0 0 0 0 0 0 0 0 0
0 0 0 0 0 0 0 0 0 0 0 0 0 0 0 0 0 0 0 0 0 0 0 0 0 0 0 0 0 0 0 0 0 0 0 0 0 0 0 0 0 0 0
Wind_Speed
1 1 1 1 1 1 1 1 1 1 2 2 2 2 2 3 3 2 1 4 5 6 7 8 9 9 9 9 9 9 8 8 8 8 8 8 8 8 8 8 8 8 8
0 1 1 1 1 1 1 1 2 1 2 2 2 3 3 3 3 2 2 3 6 7 8 9 9 10 10 10 10 9 9 9 9 9 9 9 9 9 9 8 8 9 9
0 1 1 1 1 1 1 1 2 1 2 2 2 3 3 3 3 3 3 2 3 6 8 9 10 10 11 10 10 10 10 10 9 9 9 10 10 10 10 10 9 9 10
0 1 1 1 1 1 1 1 1 1 1 2 2 3 3 3 4 4 3 3 3 3 5 7 9 10 11 11 11 11 10 9 9 9 9 10 10 10 10 11 10 10 10
1 0 1 1 1 1 1 2 1 1 1 2 3 3 3 3 4 4 4 4 3 3 3 5 8 9 10 11 11 11 10 9 9 9 10 10 10 11 11 12 11 11 12
1 0 1 1 1 1 1 1 2 2 2 2 4 4 4 4 4 4 4 3 3 3 3 4 4 6 9 10 11 11 11 10 10 10 10 10 11 11 12 13 13 12 12
0 1 1 1 1 1 1 1 1 2 2 1 2 3 4 4 4 3 3 3 3 3 3 3 3 3 4 8 9 10 11 11 10 10 10 11 11 12 13 14 13 13 13
1 1 1 1 1 1 1 1 1 1 2 1 1 2 3 3 2 3 3 3 3 2 3 4 4 3 3 2 4 9 11 11 11 11 11 11 12 12 13 13 14 14 14
2 1 2 1 2 2 2 2 2 1 2 2 1 1 1 3 3 3 3 2 2 2 3 3 3 3 3 3 3 5 8 9 11 11 12 12 12 13 13 13 13 13 13
2 2 2 2 2 2 2 2 2 2 2 2 2 2 3 2 2 3 2 2 2 3 3 3 3 3 3 3 3 5 7 9 11 12 12 12 13 14 14 13 13 12 12
2 2 2 2 2 2 2 2 2 2 2 2 2 2 3 3 3 3 5 4 3 3 2 3 3 3 3 2 2 4 7 9 10 11 12 13 13 14 14 14 14 13 12
2 2 2 2 2 2 2 2 3 3 3 3 2 2 2 2 2 3 4 4 4 4 3 3 3 3 3 2 3 6 8 10 10 11 11 12 13 14 14 14 14 14 13
2 2 2 2 2 2 3 2 2 3 3 3 3 2 2 3 3 3 4 4 5 4 3 3 2 2 3 2 3 7 8 9 10 11 12 12 12 13 13 14 14 14 14
2 2 2 2 2 2 3 2 2 3 2 3 3 3 3 3 3 3 3 3 4 4 3 4 2 2 2 2 4 7 5 9 10 10 11 11 12 12 13 13 14 14 14
2 3 3 3 3 2 3 3 2 3 2 3 3 3 3 3 3 3 3 3 3 5 5 4 3 3 3 2 4 4 4 8 10 10 10 11 11 12 12 13 13 13 13
2 3 3 3 3 2 2 2 2 2 2 3 3 3 3 3 3 3 3 3 3 4 6 3 3 3 4 4 6 4 4 9 9 10 11 11 11 12 12 12 12 13 12
2 3 3 3 3 3 2 2 2 2 3 3 3 3 4 3 3 3 3 3 3 3 6 5 3 3 4 5 5 4 4 4 4 9 11 11 12 12 12 10 10 10 10
3 3 3 3 3 3 2 3 3 3 3 3 3 3 4 3 3 3 3 3 3 3 4 6 4 3 5 5 5 5 5 5 4 8 10 10 11 10 9 9 9 9 9
3 3 3 3 3 3 3 3 3 3 4 4 3 3 4 3 4 3 3 3 3 3 3 4 5 4 4 4 4 4 5 4 5 6 8 9 10 10 9 9 9 9 8
3 3 3 3 3 3 3 3 3 4 3 3 3 3 4 4 4 4 3 4 3 3 3 3 4 3 3 3 3 4 4 3 4 4 5 6 8 9 9 9 8 8 8
3 2 3 3 3 3 3 3 3 3 3 3 3 3 3 4 5 4 4 3 3 2 3 3 3 3 4 3 3 3 4 4 4 3 3 4 4 4 5 6 7 7 7
3 2 2 3 3 3 5 6 5 3 3 3 3 3 3 4 5 6 7 6 5 4 4 4 4 4 5 4 3 3 3 4 4 2 3 4 3 3 3 3 5 6 5
2 3 3 2 3 3 6 6 7 4 3 3 3 3 3 3 4 3 4 5 5 7 7 5 5 5 5 4 4 4 4 4 4 3 3 4 3 4 4 4 6 5 5
2 2 3 3 3 4 6 7 7 3 3 3 3 3 3 3 4 3 3 3 3 4 5 4 4 4 4 4 4 4 4 4 3 2 2 3 3 3 4 3 6 5 5
2 2 3 3 3 4 6 7 6 2 2 3 3 3 3 3 5 5 3 3 3 3 4 5 5 5 6 7 5 3 3 3 4 3 2 2 3 4 3 3 3 4 5
2 3 3 3 3 3 5 6 6 2 2 2 3 3 4 4 5 5 3 2 3 3 3 3 3 4 4 4 5 3 2 2 3 3 2 2 2 2 3 2 2 3 3
Wind_Direction
287 291 292 278 269 236 206 252 269 272 277 270 274 273 259 252 245 229 224 227 238 246 254 264 270 273 273 273 273 274 276 274 270 268 266 267 269 270 263 261 264 267 267
260 284 292 281 289 299 260 243 253 263 269 274 281 282 274 267 253 238 225 229 239 247 255 261 268 273 275 274 273 273 271 271 271 267 266 267 268 270 266 262 262 264 268
257 280 283 271 278 298 290 283 274 275 277 287 286 286 281 272 268 250 240 226 231 243 253 262 267 272 273 275 274 273 273 271 270 270 270 267 267 268 266 264 262 262 264
278 290 276 268 272 288 283 271 261 278 288 293 293 286 285 280 273 259 249 235 227 235 245 258 269 272 278 279 277 275 274 271 271 272 275 276 272 269 269 264 264 262 263
270 260 256 248 237 251 273 285 298 287 290 295 288 281 275 272 270 266 254 244 232 223 223 250 261 268 275 278 279 277 275 270 271 273 275 278 280 273 272 266 266 266 263
257 271 239 232 235 233 257 278 287 292 279 281 292 289 280 271 267 256 253 251 238 236 235 239 243 259 265 272 277 279 276 272 273 273 276 278 280 281 274 268 264 266 265
243 264 246 213 225 233 248 261 281 282 286 303 309 301 288 264 253 252 252 247 244 242 238 239 237 239 252 266 274 278 278 273 274 276 276 277 279 280 281 274 265 265 267
249 267 245 216 217 229 247 254 268 274 287 302 286 309 311 307 286 272 257 242 243 250 252 256 246 240 236 233 264 276 279 277 278 279 279 280 279 280 282 284 269 265 265
237 241 242 226 223 211 222 230 220 233 263 280 262 238 266 272 306 281 264 260 256 253 255 258 251 245 247 240 238 265 278 284 286 286 285 284 283 282 282 284 284 272 265
228 229 245 236 225 217 221 238 246 235 229 257 273 260 257 263 277 301 300 299 297 293 287 287 276 265 254 243 244 262 272 282 283 286 288 288 287 285 283 286 284 280 273
245 231 238 233 224 220 217 225 244 241 234 234 247 269 275 277 255 261 282 293 301 292 292 293 285 283 279 259 249 262 273 278 279 284 287 288 288 285 286 286 285 281 275
269 251 246 237 230 226 222 225 234 237 244 243 247 252 259 261 265 265 273 285 289 293 295 286 283 284 284 283 280 287 286 282 278 280 283 286 287 288 287 289 286 285 280
281 265 267 247 238 237 237 232 233 240 236 240 243 250 254 264 268 270 276 283 287 289 284 279 266 274 280 280 281 289 286 288 283 278 279 282 285 287 287 288 287 284 284
277 278 269 269 261 246 248 237 234 237 240 241 255 258 256 258 262 262 262 273 290 288 275 272 280 256 273 269 276 292 286 291 288 282 279 280 283 284 286 286 289 285 285
291 296 289 279 267 251 242 240 239 237 235 240 247 255 260 260 259 264 264 254 256 282 286 270 276 272 272 269 281 285 281 285 292 287 281 280 281 281 282 284 285 283 280
299 302 301 288 275 256 251 250 253 248 240 249 249 254 262 266 263 257 261 266 256 257 275 278 284 294 294 293 292 292 287 300 299 297 287 282 280 278 277 281 282 281 278
298 293 292 286 278 271 257 253 256 252 251 259 259 258 261 265 265 268 267 268 267 259 269 284 282 287 291 288 291 288 285 281 285 295 295 286 283 279 276 275 279 276 278
297 290 287 288 284 282 276 261 261 262 256 259 262 262 264 268 266 264 262 264 268 265 262 278 288 288 283 282 285 286 292 293 286 295 298 299 296 291 283 278 280 275 278
302 299 297 292 289 286 282 273 264 267 262 260 258 257 263 263 265 265 266 264 268 275 266 271 283 287 290 295 297 294 289 291 293 297 298 299 299 299 291 286 284 280 281
298 298 295 288 286 286 282 279 280 277 272 268 265 260 258 255 259 261 265 262 263 268 270 273 278 287 288 292 291 292 296 295 294 301 302 305 304 302 296 292 292 292 291
299 293 293 289 288 285 284 290 284 283 277 280 281 273 274 280 277 272 273 269 260 261 270 272 278 290 291 300 293 289 292 299 291 296 304 305 304 301 299 294 297 302 300
310 311 301 296 300 300 310 311 307 290 285 282 284 280 279 281 286 289 290 284 271 260 265 269 278 280 283 285 292 295 300 305 300 304 312 306 308 301 299 301 312 310 313
319 320 316 313 308 308 314 316 319 311 296 288 281 280 288 291 290 270 290 297 284 278 269 263 268 274 281 288 293 295 293 293 290 295 308 304 311 308 309 320 332 320 321
321 316 316 317 316 317 323 321 326 321 305 297 287 279 277 282 289 291 288 288 281 277 275 272 269 279 288 290 278 276 281 293 302 300 301 291 305 308 313 313 326 326 330
321 314 315 321 321 318 325 329 331 314 303 300 292 287 282 275 295 302 291 285 289 293 306 308 305 310 314 313 313 308 305 303 307 312 325 303 303 310 309 306 318 340 342
312 318 318 317 313 308 322 328 327 303 301 306 303 295 291 291 296 293 272 264 277 288 304 315 319 321 314 315 322 307 289 291 304 304 317 327 313 330 320 319 339 351 357